CZ-3C DEB, 39356

Orbit data source: Space-Track

CZ-3C DEB, 39356 is space debris in HEO originally from a launch on Sun, 31 Oct 2010 UTC launched from the Xichang Space Center, China (XSC). Debris objects in space refer to the collection of defunct objects orbiting the Earth. Examples of debris include non-operational satellites, rocket bodies, and fragments generated from explosions, collisions, or faulty payload assembly.

Loading next visibility...
Identifier
39356, 2010-057W
Orbit
HEO
Country
Flag of CNCN / PRC
Related business
Manufacturer
CALT
Mission
Spacecraft
Bus & Motor
Unknown
Mass
Unknown
Launch date (UTC)
2010-10-31 (16 years ago)
Launch vehicle
Unknown
Launch site
Xichang Space Center, China (XSC)
Object type
Payload
Rocket body
Debris
Shape & HBR
Unknown shape, 0.3 m
Radar Cross Section
Medium (>0.1 m² and <1 m²)

Expand to show TLE details & history
Last TLE update: 14 hours ago

TLE from 14 hours ago
0 CZ-3C DEB
1 39356U 10057W   26264.03850950  .00000013  00000-0  49274-3 0  9992
2 39356  20.5245 268.0021 7121084 137.4937 307.6792  2.36960970108524
Epoch: 2026-09-21T00:55Z
TLE epoch observation values (Epoch: 2026-09-21T00:55:27.220Z)
Latitude
-0.00001°
Longitude
-105.76851°
Altitude
18,245.769 km
Speed
3.95 km/s
True Right ascension
17h 52m 04s
True Declination
0° 00' 00"
Sunlit
Object was in daylight at epoch
Visualization orbit readout
Latitude
Unknown
Longitude
Unknown
Altitude
Unknown
Speed
Unknown
Apparent Right ascension
Unknown
Apparent Declination
Unknown
Sunlit
N/A
Visualization observer readout
Local Sidereal Time
08:06:31
Azimuth
Unknown
Elevation
Unknown
Doppler factor
Unknown
Orbital elements
Apogee altitude
34,318.823 km
Perigee altitude
465.07 km
Semi-major axis
23,770.084 km
Eccentricity
0.71211
Inclination
20.5245°
RAAN
268.0021°
Arg. of periapsis
137.4937°
True anomaly
222.48255°
Mean anomaly
307.6792°
Eccentric anomaly
266.93669°
Mean motion
0.59224 °/min
Orbital period
607.86 mins
BSTAR
0.00049274
Loading maneuver chart data...
Computing Atmospheric mass density...
Loading historical data...
Loading historical data...
Loading historical data...
Loading historical data...
Loading historical data...
Loading historical data...
Loading historical data...

Documentation

Showing up to 5 results
|